Weather History for West Vancouver, BC

Change the Weather History Date:

Monday, September 17, 2012

  Actual Average Record
Temperature  
Mean Temperature 69 °F -  
Max Temperature 81 °F - - ()
Min Temperature 57 °F - - ()
Cooling Degree Days 4    
Growing Degree Days 19 (Base 50)    
Moisture  
Dew Point 47 °F    
Average Humidity 47    
Maximum Humidity 68    
Minimum Humidity 22    
Precipitation  
Precipitation 0.00 in - - ()
Sea Level Pressure  
Sea Level Pressure 30.09 in    
Wind  
Wind Speed 1 mph ()    
Max Wind Speed 4 mph    
Max Gust Speed -    
T = Trace of Precipitation, MM = Missing Value Source: Averaged Metar Reports

Daily Weather History Graph

Daily Weather History Graph

Search for Another Location

Airport:

Trip Planner

Search our weather history database for the weather conditions in past years. The results will help you decide how hot, cold, wet, or windy it might be!

Date:

Astronomy

Sep. 17, 2012 Rise Set
Actual Time 6:52 AM PDT 7:20 PM PDT
Civil Twilight 6:20 AM PDT 7:52 PM PDT
Nautical Twilight 5:42 AM PDT 8:29 PM PDT
Astronomical Twilight 5:03 AM PDT 9:09 PM PDT
Moon 9:05 AM PDT (9/17) 7:46 PM PDT (9/17)
Length of Visible Light 13h 31m
Length of Day
12h 27m
Waxing Crescent, 4% of the Moon is Illuminated
Sep 17
Waxing Crescent
Sep 22
First Quarter
Sep 29
Full
Oct 8
Last Quarter
Oct 15
New

Hourly Weather History & Observations

Time (PDT) Temp. Dew Point Humidity Pressure Visibility Wind Dir Wind Speed Gust Speed Precip Events Conditions
12:00 AM 61.9 °F 45.3 °F 55% 30.14 in - NNE 1.2 mph - N/A   Unknown
1:00 AM 61.0 °F 45.1 °F 56% 30.14 in - North 1.2 mph - N/A   Unknown
2:00 AM 61.0 °F 46.0 °F 58% 30.15 in - NNE 1.2 mph - N/A   Unknown
3:00 AM 60.6 °F 45.9 °F 58% 30.15 in - North 1.2 mph - N/A   Unknown
4:00 AM 60.6 °F 43.9 °F 54% 30.14 in - North 3.5 mph - N/A   Unknown
5:00 AM 60 °F 46 °F 49% 30.14 in - NNE 2.3 mph - -  
5:00 AM 60.1 °F 45.9 °F 59% 30.14 in - NNE 2.3 mph - N/A   Unknown
6:00 AM 59.4 °F 44.1 °F 57% 30.14 in - Calm Calm - N/A   Unknown
7:00 AM 57.0 °F 44.2 °F 62% 30.14 in - Calm Calm - N/A   Unknown
9:00 AM 60.6 °F 50.0 °F 68% 30.15 in - SE 1.2 mph - N/A   Unknown
10:00 AM 65.7 °F 50.0 °F 57% 30.14 in - East 1.2 mph - N/A   Unknown
11:00 AM 70 °F 48 °F 34% 30.14 in - WSW 1.2 mph - -  
11:00 AM 70.0 °F 48.0 °F 46% 30.14 in - WSW 1.2 mph - N/A   Unknown
12:00 PM 70.2 °F 47.8 °F 45% 30.13 in - WSW 1.2 mph - N/A   Unknown
1:00 PM 69.8 °F 45.9 °F 42% 30.12 in - SW 2.3 mph - N/A   Unknown
2:00 PM 75.9 °F 47.3 °F 36% 30.09 in - SW 1.2 mph - N/A   Unknown
3:00 PM 78.3 °F 47.7 °F 34% 30.07 in - SSW 1.2 mph - N/A   Unknown
4:00 PM 76.1 °F 50.9 °F 41% 30.03 in - SSE 1.2 mph - N/A   Unknown
5:00 PM 81 °F 49 °F 22% 30.01 in - Calm Calm - -  
5:00 PM 81.0 °F 48.6 °F 32% 30.01 in - Calm Calm - N/A   Unknown
6:00 PM 73.4 °F 50.0 °F 44% 30.00 in - Calm Calm - N/A   Unknown
7:00 PM 70.2 °F 49.1 °F 47% 30.02 in - Calm Calm - N/A   Unknown
8:00 PM 67.5 °F 45.1 °F 45% 30.02 in - Calm Calm - N/A   Unknown
9:00 PM 66.0 °F 43.7 °F 44% 30.02 in - Calm Calm - N/A   Unknown
10:00 PM 65.5 °F 42.4 °F 43% 30.02 in - North 1.2 mph - N/A   Unknown
11:00 PM 65 °F 43 °F 33% 30.02 in - Calm Calm - -  
11:00 PM 65.3 °F 42.6 °F 44% 30.02 in - Calm Calm - N/A   Unknown